QPF
0.01 0.03 0.01 0.00 0.00 0.00 0.00 0.00 0.00 0.00 0.00 0.00 0.00 0.00 0.00 0.00 0.00 0.00 0.00 0.00 0.00 0.02 0.05 0.04 0.11 0.38 0.51 0.42 0.59 0.52 0.19 0.04 0.03 0.00 0.00 0.00 0.00 0.00 0.00 0.00 0.00 0.00 0.00 0.00
0.01 0.00 0.00 0.00 0.00 0.00 0.00 0.00 0.00 0.00 0.00 0.00 0.00 0.00 0.00 0.00 0.00 0.00 0.00 0.00 0.00 0.00 0.00 0.00 0.08 0.19 0.34 0.73 0.88 1.17 0.77 0.17 0.04 0.01 0.03 0.00 0.00 0.00 0.00 0.00 0.00 0.00 0.00 0.00
0.00 0.00 0.00 0.00 0.00 0.00 0.00 0.00 0.00 0.00 0.00 0.00 0.00 0.00 0.00 0.00 0.00 0.00 0.00 0.00 0.00 0.00 0.00 0.00 0.06 0.34 0.47 0.63 1.07 1.33 1.29 0.72 0.16 0.03 0.01 0.00 0.00 0.01 0.03 0.02 0.02 0.01 0.00 0.00
0.00 0.00 0.00 0.00 0.00 0.00 0.00 0.00 0.00 0.00 0.00 0.00 0.00 0.00 0.00 0.00 0.00 0.00 0.00 0.00 0.00 0.01 0.02 0.01 0.00 0.01 0.11 0.45 0.85 1.23 0.96 1.02 0.37 0.07 0.01 0.01 0.02 0.05 0.08 0.07 0.05 0.04 0.02 0.00
0.01 0.00 0.00 0.00 0.00 0.00 0.00 0.00 0.00 0.00 0.00 0.00 0.00 0.00 0.00 0.00 0.00 0.00 0.00 0.00 0.00 0.00 0.00 0.00 0.00 0.00 0.01 0.20 0.82 1.38 1.61 1.29 0.90 0.16 0.04 0.08 0.14 0.12 0.07 0.05 0.03 0.03 0.00 0.00
0.00 0.00 0.00 0.00 0.00 0.00 0.00 0.00 0.00 0.00 0.00 0.00 0.00 0.00 0.00 0.00 0.00 0.00 0.00 0.00 0.00 0.00 0.00 0.00 0.00 0.00 0.01 0.06 0.70 1.57 2.00 1.67 1.34 0.42 0.21 0.20 0.15 0.07 0.03 0.03 0.02 0.00 0.00 0.00
0.00 0.00 0.00 0.00 0.00 0.00 0.00 0.00 0.00 0.00 0.00 0.00 0.00 0.00 0.00 0.00 0.00 0.00 0.00 0.00 0.00 0.00 0.00 0.00 0.00 0.00 0.02 0.04 0.09 0.55 2.26 1.29 1.75 0.76 0.26 0.23 0.16 0.06 0.04 0.04 0.02 0.00 0.00 0.00
0.00 0.00 0.00 0.00 0.00 0.00 0.00 0.00 0.00 0.00 0.00 0.00 0.00 0.00 0.00 0.00 0.00 0.00 0.00 0.00 0.00 0.00 0.00 0.00 0.00 0.00 0.00 0.03 0.05 0.11 0.55 0.61 0.78 0.50 0.26 0.21 0.12 0.06 0.05 0.03 0.00 0.00 0.00 0.00
0.00 0.00 0.00 0.00 0.00 0.00 0.00 0.00 0.00 0.00 0.00 0.00 0.00 0.00 0.00 0.00 0.00 0.00 0.00 0.00 0.00 0.00 0.00 0.00 0.00 0.00 0.02 0.03 0.05 0.07 0.05 0.05 0.17 0.23 0.17 0.12 0.06 0.02 0.02 0.00 0.00 0.00 0.00 0.00
0.00 0.00 0.00 0.00 0.00 0.00 0.00 0.00 0.00 0.02 0.02 0.00 0.00 0.00 0.00 0.00 0.00 0.00 0.00 0.00 0.00 0.00 0.00 0.00 0.00 0.01 0.03 0.10 0.23 0.21 0.21 0.24 0.21 0.18 0.15 0.09 0.03 0.01 0.00 0.00 0.00 0.00 0.00 0.00
0.01 0.02 0.00 0.00 0.00 0.00 0.00 0.00 0.00 0.02 0.04 0.02 0.03 0.00 0.00 0.00 0.00 0.00 0.00 0.00 0.00 0.00 0.00 0.00 0.00 0.00 0.13 0.17 0.22 0.30 0.23 0.14 0.10 0.09 0.06 0.03 0.01 0.00 0.00 0.00 0.00 0.00 0.00 0.00
0.01 0.00 0.00 0.00 0.00 0.00 0.00 0.00 0.00 0.01 0.01 0.00 0.02 0.01 0.00 0.00 0.00 0.00 0.00 0.00 0.00 0.01 0.02 0.01 0.04 0.14 0.24 0.13 0.16 0.21 0.19 0.10 0.05 0.03 0.02 0.00 0.00 0.00 0.00 0.00 0.00 0.00 0.00 0.00
0.00 0.01 0.00 0.00 0.00 0.00 0.00 0.00 0.00 0.00 0.00 0.00 0.01 0.00 0.00 0.00 0.00 0.00 0.00 0.00 0.01 0.03 0.03 0.01 0.02 0.10 0.20 0.20 0.19 0.18 0.08 0.02 0.01 0.00 0.00 0.00 0.00 0.00 0.00 0.00 0.00 0.00 0.00 0.00
0.00 0.00 0.00 0.00 0.00 0.00 0.00 0.00 0.00 0.00 0.00 0.00 0.00 0.02 0.01 0.01 0.00 0.00 0.00 0.00 0.00 0.01 0.01 0.01 0.09 0.14 0.13 0.18 0.17 0.09 0.04 0.03 0.02 0.01 0.01 0.00 0.00 0.00 0.00 0.00 0.00 0.00 0.00 0.00
0.00 0.01 0.02 0.00 0.00 0.00 0.00 0.00 0.00 0.00 0.00 0.00 0.00 0.02 0.07 0.05 0.00 0.00 0.00 0.00 0.01 0.03 0.01 0.00 0.04 0.12 0.09 0.12 0.08 0.05 0.07 0.06 0.02 0.01 0.00 0.00 0.00 0.00 0.00 0.00 0.00 0.00 0.00 0.00
0.01 0.01 0.00 0.00 0.00 0.00 0.00 0.00 0.00 0.00 0.00 0.01 0.01 0.04 0.21 0.23 0.12 0.03 0.01 0.00 0.00 0.02 0.03 0.03 0.06 0.12 0.10 0.08 0.07 0.05 0.03 0.01 0.00 0.00 0.00 0.00 0.00 0.00 0.00 0.00 0.00 0.00 0.00 0.00
0.03 0.00 0.00 0.00 0.00 0.00 0.00 0.00 0.00 0.00 0.00 0.00 0.03 0.09 0.22 0.24 0.14 0.07 0.03 0.02 0.01 0.02 0.03 0.05 0.09 0.09 0.07 0.07 0.04 0.02 0.00 0.00 0.00 0.00 0.00 0.00 0.00 0.00 0.00 0.00 0.00 0.00 0.00 0.00
0.11 0.02 0.00 0.00 0.00 0.00 0.00 0.00 0.00 0.00 0.00 0.00 0.04 0.15 0.07 0.10 0.07 0.07 0.03 0.02 0.03 0.02 0.04 0.03 0.03 0.02 0.02 0.02 0.01 0.01 0.00 0.00 0.00 0.00 0.00 0.00 0.00 0.00 0.00 0.00 0.00 0.00 0.00 0.00
0.10 0.04 0.00 0.00 0.01 0.00 0.00 0.00 0.00 0.00 0.05 0.06 0.01 0.04 0.08 0.07 0.04 0.01 0.00 0.01 0.01 0.01 0.00 0.01 0.00 0.00 0.00 0.00 0.00 0.00 0.00 0.00 0.00 0.00 0.00 0.00 0.00 0.00 0.00 0.00 0.00 0.00 0.00 0.00
0.04 0.02 0.00 0.01 0.00 0.00 0.01 0.00 0.01 0.01 0.02 0.07 0.10 0.03 0.00 0.02 0.02 0.01 0.00 0.00 0.00 0.00 0.00 0.00 0.00 0.00 0.00 0.00 0.00 0.00 0.00 0.00 0.00 0.00 0.00 0.00 0.00 0.00 0.00 0.00 0.00 0.00 0.00 0.00
0.01 0.01 0.06 0.07 0.00 0.00 0.00 0.00 0.02 0.04 0.00 0.00 0.03 0.03 0.00 0.00 0.00 0.00 0.00 0.00 0.00 0.00 0.00 0.00 0.00 0.00 0.00 0.00 0.00 0.00 0.00 0.00 0.00 0.00 0.00 0.00 0.00 0.00 0.00 0.00 0.00 0.00 0.00 0.00
0.05 0.03 0.01 0.02 0.01 0.03 0.00 0.00 0.00 0.00 0.00 0.00 0.00 0.00 0.00 0.00 0.00 0.00 0.00 0.00 0.00 0.00 0.00 0.00 0.00 0.00 0.03 0.13 0.09 0.02 0.00 0.00 0.00 0.00 0.00 0.00 0.00 0.00 0.00 0.00 0.00 0.00 0.00 0.00
0.08 0.08 0.05 0.05 0.01 0.02 0.00 0.00 0.00 0.00 0.00 0.00 0.00 0.00 0.00 0.00 0.00 0.00 0.00 0.00 0.00 0.00 0.00 0.00 0.00 0.00 0.03 0.10 0.13 0.10 0.01 0.00 0.00 0.00 0.00 0.00 0.00 0.00 0.00 0.00 0.00 0.00 0.00 0.00
0.01 0.07 0.05 0.04 0.02 0.00 0.01 0.01 0.01 0.01 0.00 0.00 0.00 0.00 0.00 0.00 0.00 0.00 0.00 0.00 0.00 0.00 0.00 0.00 0.00 0.00 0.00 0.00 0.00 0.00 0.00 0.00 0.00 0.00 0.00 0.00 0.00 0.00 0.00 0.00 0.00 0.00 0.00 0.00
0.01 0.05 0.09 0.03 0.03 0.02 0.04 0.04 0.04 0.04 0.01 0.00 0.00 0.00 0.00 0.00 0.00 0.00 0.00 0.00 0.00 0.00 0.00 0.00 0.00 0.00 0.00 0.00 0.00 0.00 0.00 0.00 0.00 0.00 0.00 0.00 0.00 0.00 0.00 0.00 0.00 0.00 0.00 0.00
0.02 0.02 0.02 0.07 0.22 0.34 0.11 0.15 0.11 0.02 0.01 0.00 0.00 0.00 0.00 0.00 0.00 0.00 0.00 0.00 0.00 0.00 0.00 0.00 0.00 0.00 0.00 0.00 0.00 0.00 0.00 0.00 0.00 0.00 0.00 0.00 0.00 0.00 0.00 0.00 0.00 0.00 0.00 0.00
MSLP
1006.97 1007.62 1006.95 1006.92 1007.27 1006.95 1006.41 1005.81 1005.25 1004.68 1003.80 1003.86 1003.19 1002.88 1003.11 1002.77 1003.07 1003.71 1004.80 1005.21 1005.32 1005.06 1005.79 1006.95 1007.57 1009.69 1008.78 1008.13 1010.25 1010.23 1011.21 1009.04 1009.33 1009.44 1009.84 1010.15 1010.50 1010.72 1011.06 1011.18 1011.80 1012.40 1012.93 1013.10
1007.91 1006.94 1006.97 1006.92 1006.96 1006.73 1006.07 1005.59 1005.05 1004.40 1003.53 1003.83 1003.25 1002.77 1003.09 1002.98 1003.16 1003.61 1004.77 1005.49 1005.98 1006.27 1006.45 1007.10 1008.06 1010.13 1010.43 1009.80 1009.63 1010.35 1011.76 1008.98 1008.87 1009.03 1009.95 1010.64 1011.05 1010.89 1010.71 1011.44 1012.16 1012.80 1013.13 1013.36
1007.98 1007.22 1006.73 1006.21 1006.06 1005.89 1005.39 1005.11 1004.95 1004.68 1003.94 1003.86 1003.84 1003.52 1003.33 1003.36 1003.90 1004.55 1005.20 1005.74 1006.17 1006.31 1006.97 1007.34 1007.86 1008.13 1008.96 1009.29 1009.87 1011.55 1008.18 1009.79 1010.12 1008.81 1009.46 1010.32 1011.66 1011.58 1011.58 1012.22 1013.16 1013.51 1013.52 1013.79
1007.79 1006.85 1006.38 1005.77 1005.34 1005.17 1004.62 1004.58 1004.81 1004.82 1005.25 1004.99 1003.94 1003.95 1003.64 1004.11 1004.78 1005.54 1005.85 1006.01 1006.27 1006.55 1007.03 1007.43 1006.87 1006.76 1007.17 1007.67 1009.34 1009.45 1011.03 1011.52 1010.63 1008.58 1008.97 1010.29 1012.21 1012.20 1012.23 1012.81 1013.29 1014.11 1014.20 1014.13
1007.23 1006.45 1006.05 1005.39 1004.66 1004.46 1004.43 1004.44 1004.80 1005.15 1005.55 1005.54 1004.75 1004.81 1003.18 1004.01 1005.37 1005.64 1006.12 1006.30 1006.39 1005.81 1006.30 1006.93 1006.94 1006.72 1006.35 1006.37 1006.91 1008.05 1009.00 1009.73 1010.91 1009.31 1009.27 1009.87 1011.66 1012.27 1012.37 1012.90 1014.02 1014.76 1014.70 1014.49
1006.95 1006.20 1005.81 1004.56 1004.16 1004.30 1004.32 1004.64 1005.13 1005.64 1006.21 1006.26 1005.25 1005.00 1003.57 1003.71 1003.91 1005.09 1005.82 1006.03 1006.47 1006.76 1006.52 1007.19 1007.30 1007.27 1007.17 1007.51 1008.09 1008.43 1008.68 1007.49 1010.13 1010.53 1010.04 1010.43 1011.23 1012.01 1012.24 1013.55 1015.14 1015.02 1014.90 1014.88
1006.55 1005.59 1004.73 1004.24 1004.16 1004.13 1004.53 1005.45 1006.31 1007.02 1007.24 1006.36 1005.27 1005.01 1003.17 1002.29 1002.57 1002.97 1004.07 1005.17 1005.71 1006.51 1006.79 1006.69 1007.21 1007.59 1007.83 1007.89 1008.01 1007.75 1007.52 1008.93 1009.93 1009.29 1011.04 1010.81 1011.17 1011.49 1012.73 1013.91 1014.96 1014.83 1015.39 1015.46
1006.45 1005.16 1004.17 1003.63 1003.98 1004.19 1004.81 1005.82 1006.23 1006.96 1007.47 1006.30 1005.59 1004.68 1001.91 1001.58 1001.96 1002.18 1003.08 1003.57 1004.99 1005.64 1005.99 1005.82 1006.33 1006.75 1007.60 1008.01 1007.99 1008.10 1005.53 1008.13 1010.25 1009.79 1011.38 1011.27 1012.10 1012.09 1012.80 1014.09 1014.05 1014.56 1015.47 1015.62
1005.68 1003.95 1002.98 1003.08 1003.32 1004.04 1004.58 1005.68 1006.16 1006.97 1007.49 1007.01 1005.82 1003.81 1001.85 1001.15 1001.37 1002.03 1002.83 1004.05 1004.82 1005.06 1005.17 1004.96 1005.62 1005.75 1006.39 1006.98 1007.41 1007.54 1007.40 1007.64 1009.24 1010.51 1011.25 1011.74 1012.67 1012.85 1013.30 1013.54 1014.26 1014.79 1015.39 1016.06
1005.10 1003.95 1002.75 1002.47 1003.01 1003.30 1003.68 1004.79 1006.23 1007.75 1008.48 1007.81 1005.75 1004.21 1002.31 1001.37 1001.08 1001.92 1002.65 1003.17 1004.25 1004.52 1004.27 1004.23 1004.99 1005.32 1005.55 1006.15 1007.17 1007.72 1008.19 1008.46 1009.41 1010.40 1011.59 1012.21 1012.58 1013.16 1013.46 1013.79 1014.90 1015.98 1016.17 1016.11
1004.75 1004.89 1003.13 1002.50 1002.63 1002.85 1003.51 1004.53 1006.22 1007.45 1008.39 1008.22 1006.67 1003.69 1001.62 1000.95 1000.68 1001.45 1001.91 1002.02 1003.03 1004.11 1003.83 1003.59 1004.23 1005.29 1005.61 1005.67 1006.84 1007.83 1008.29 1008.14 1009.29 1010.45 1010.94 1011.79 1012.75 1013.29 1013.66 1014.71 1015.47 1016.16 1016.29 1016.50
1003.89 1004.03 1003.66 1002.69 1002.07 1002.27 1003.17 1004.43 1005.88 1007.09 1007.93 1007.80 1006.75 1004.22 1001.44 1000.59 999.84 1000.15 1000.69 1001.03 1001.97 1003.49 1003.85 1003.35 1004.10 1005.30 1006.11 1006.97 1007.78 1008.40 1009.29 1009.76 1010.46 1010.73 1012.23 1013.35 1013.46 1013.85 1014.52 1015.51 1016.00 1016.47 1017.14 1017.21
1003.03 1003.59 1003.74 1003.03 1002.66 1002.57 1003.04 1003.77 1004.83 1005.73 1006.62 1007.16 1006.85 1004.04 1002.91 1001.05 999.89 1000.23 1000.61 1001.03 1002.45 1003.65 1003.52 1003.65 1004.60 1005.04 1006.82 1007.66 1008.74 1009.54 1010.03 1010.63 1011.03 1012.07 1012.82 1013.89 1014.35 1014.89 1015.47 1016.13 1016.72 1017.13 1017.53 1017.69
1002.51 1003.28 1003.46 1003.59 1002.70 1002.55 1002.72 1003.20 1004.09 1004.98 1006.28 1006.72 1005.83 1005.09 1004.35 1003.41 1002.03 1001.86 1002.42 1002.41 1003.37 1004.07 1004.53 1005.01 1005.84 1006.67 1007.26 1008.75 1009.09 1009.73 1010.97 1011.67 1012.19 1012.86 1013.78 1014.82 1015.33 1015.67 1016.40 1016.60 1017.23 1017.56 1017.99 1018.30
1003.27 1003.74 1003.41 1002.82 1002.21 1001.93 1001.94 1002.25 1003.37 1004.23 1004.77 1005.36 1005.53 1005.92 1005.40 1004.58 1004.36 1003.77 1003.77 1004.24 1004.95 1005.88 1006.25 1006.68 1007.42 1007.91 1008.43 1008.99 1010.14 1011.01 1011.78 1012.21 1012.47 1013.34 1014.07 1015.09 1015.61 1016.18 1016.73 1017.44 1017.99 1018.23 1018.55 1018.66
1004.54 1004.48 1003.75 1003.01 1001.97 1001.54 1001.53 1001.47 1002.24 1003.21 1004.06 1004.33 1005.01 1006.17 1006.61 1006.88 1006.03 1005.84 1005.77 1005.49 1006.51 1007.42 1007.64 1008.25 1008.80 1009.14 1009.27 1010.38 1011.37 1011.97 1012.66 1013.09 1013.51 1014.27 1014.98 1015.95 1016.69 1017.22 1017.93 1018.40 1018.79 1018.73 1018.76 1018.99
1006.08 1005.33 1004.80 1003.98 1002.94 1001.66 1001.79 1000.99 1001.29 1001.99 1002.59 1002.99 1004.48 1006.57 1007.45 1008.11 1007.92 1007.73 1007.37 1007.67 1008.54 1009.35 1009.60 1009.87 1010.33 1010.83 1011.09 1011.64 1011.99 1012.68 1013.27 1013.95 1014.57 1015.33 1015.87 1016.53 1017.25 1017.87 1018.37 1018.88 1018.81 1018.87 1019.10 1019.01
1006.33 1006.19 1005.80 1004.73 1003.41 1002.49 1000.87 999.97 999.92 1000.73 1001.95 1002.71 1004.05 1006.13 1007.50 1008.42 1009.77 1009.89 1010.37 1009.51 1010.47 1011.23 1012.11 1012.13 1012.37 1012.38 1012.67 1013.30 1013.49 1013.83 1014.08 1014.31 1015.58 1016.89 1017.28 1017.63 1017.95 1018.48 1018.69 1018.83 1019.26 1019.51 1019.53 1019.69
1005.53 1006.37 1006.32 1005.64 1004.94 1003.17 1001.58 1001.32 1000.81 1000.63 1002.91 1002.74 1004.20 1006.23 1007.67 1008.77 1009.85 1011.09 1011.76 1011.49 1011.94 1011.74 1013.63 1013.97 1013.45 1013.62 1013.83 1014.27 1014.71 1014.98 1015.55 1015.73 1016.34 1017.80 1018.36 1018.69 1018.80 1019.19 1019.20 1019.06 1019.56 1019.83 1019.79 1019.43
1005.53 1006.15 1005.94 1006.00 1005.72 1004.37 1003.02 1001.99 1001.07 1001.18 1003.77 1004.49 1005.51 1006.34 1007.19 1007.59 1009.77 1012.39 1012.76 1011.53 1013.30 1013.08 1014.48 1014.53 1014.39 1014.89 1014.95 1015.93 1016.01 1016.25 1017.16 1017.23 1017.96 1018.67 1018.81 1019.19 1018.99 1019.21 1019.52 1019.70 1019.65 1019.81 1019.72 1019.69
1006.23 1006.41 1006.37 1006.49 1006.10 1004.57 1002.87 1001.96 1002.25 1002.83 1003.11 1004.49 1005.12 1006.55 1007.39 1007.61 1008.31 1010.86 1012.62 1012.81 1013.87 1014.82 1015.22 1015.07 1015.53 1015.84 1016.49 1017.04 1017.43 1017.94 1018.37 1018.87 1019.48 1019.77 1019.45 1019.90 1019.99 1020.02 1020.23 1020.32 1020.49 1020.62 1020.65 1020.58
1005.98 1006.49 1006.54 1006.41 1006.52 1004.46 1002.22 1001.95 1002.09 1001.65 1001.87 1003.41 1005.41 1006.14 1007.36 1008.01 1009.57 1010.86 1012.34 1013.96 1014.70 1015.28 1015.77 1016.12 1016.89 1017.53 1018.03 1018.15 1018.51 1019.37 1019.65 1020.04 1020.37 1020.17 1020.73 1020.91 1020.94 1020.81 1020.92 1021.01 1021.24 1021.18 1020.91 1021.09
1006.31 1006.61 1006.63 1006.09 1004.35 1003.54 1002.14 1001.27 1001.21 1001.70 1001.92 1003.78 1004.97 1006.49 1007.54 1008.99 1010.64 1011.56 1012.96 1014.51 1015.18 1015.65 1016.24 1016.93 1017.38 1018.33 1019.04 1019.47 1019.59 1020.01 1020.93 1020.61 1020.73 1021.17 1021.65 1021.49 1021.35 1021.28 1021.31 1021.37 1021.50 1021.41 1021.19 1021.43
1006.72 1006.45 1006.37 1005.67 1004.62 1003.76 1002.57 1002.70 1002.32 1002.36 1003.42 1004.09 1005.37 1006.93 1008.01 1009.53 1011.21 1012.37 1013.45 1014.70 1015.41 1016.31 1017.17 1017.68 1018.36 1019.44 1020.18 1020.35 1020.62 1020.94 1020.75 1021.25 1021.54 1022.03 1022.03 1021.81 1021.86 1021.79 1021.47 1021.48 1021.68 1021.77 1021.68 1021.93
1007.09 1006.36 1006.36 1005.73 1005.01 1003.99 1003.46 1003.56 1004.43 1004.07 1003.91 1005.45 1006.26 1007.41 1008.43 1009.49 1011.25 1012.27 1013.50 1014.69 1015.67 1016.81 1017.91 1018.59 1019.36 1020.14 1020.59 1020.83 1021.12 1021.45 1021.63 1021.66 1022.23 1022.21 1022.25 1022.34 1022.21 1022.12 1021.98 1021.95 1021.99 1021.90 1022.13 1022.19
1006.60 1006.59 1006.53 1006.06 1006.11 1006.01 1005.49 1004.85 1003.94 1003.31 1004.41 1005.70 1006.79 1008.43 1009.52 1010.22 1011.25 1012.46 1013.87 1014.98 1016.23 1017.51 1018.47 1019.24 1020.13 1020.79 1021.38 1021.66 1021.94 1022.25 1022.57 1022.67 1022.75 1022.81 1022.95 1022.97 1022.89 1022.81 1022.78 1022.75 1022.61 1022.39 1022.44 1022.53
Thickness
5559 5552 5573 5598 5608 5618 5632 5644 5654 5670 5689 5691 5703 5716 5724 5735 5742 5743 5741 5744 5752 5764 5768 5758 5759 5744 5741 5765 5750 5750 5751 5772 5776 5774 5772 5771 5770 5777 5780 5783 5777 5772 5766 5764
5541 5559 5582 5595 5603 5613 5627 5633 5645 5667 5687 5686 5699 5711 5720 5726 5735 5739 5734 5734 5740 5746 5754 5754 5746 5731 5737 5744 5752 5737 5727 5762 5768 5765 5760 5756 5761 5768 5771 5766 5762 5756 5758 5756
5540 5562 5582 5593 5601 5610 5623 5631 5641 5652 5672 5683 5687 5685 5702 5718 5720 5726 5723 5728 5733 5736 5739 5741 5745 5753 5745 5743 5746 5729 5729 5743 5739 5754 5755 5754 5749 5752 5754 5751 5743 5747 5749 5746
5546 5565 5576 5588 5601 5615 5619 5645 5647 5651 5642 5638 5680 5651 5690 5700 5699 5708 5713 5720 5724 5730 5731 5732 5745 5755 5755 5755 5747 5748 5722 5711 5712 5744 5751 5749 5735 5736 5742 5741 5742 5736 5735 5736
5550 5565 5573 5586 5605 5625 5627 5641 5642 5642 5636 5644 5654 5648 5681 5691 5682 5696 5705 5714 5718 5732 5731 5733 5739 5748 5755 5763 5765 5752 5734 5721 5706 5724 5742 5745 5731 5726 5736 5735 5727 5721 5723 5725
5557 5573 5579 5599 5615 5620 5631 5630 5632 5632 5622 5609 5642 5647 5666 5680 5698 5697 5702 5711 5712 5712 5720 5722 5729 5736 5741 5746 5747 5739 5732 5740 5725 5722 5729 5729 5726 5726 5729 5718 5708 5712 5715 5714
5562 5575 5593 5606 5605 5617 5618 5605 5590 5594 5595 5608 5647 5645 5673 5705 5710 5717 5713 5711 5712 5711 5713 5722 5724 5724 5725 5725 5736 5747 5749 5736 5723 5721 5716 5724 5727 5727 5716 5707 5704 5709 5703 5701
5554 5567 5592 5609 5606 5606 5607 5603 5592 5597 5591 5628 5641 5626 5684 5713 5714 5716 5717 5717 5709 5712 5717 5727 5723 5725 5721 5714 5724 5733 5760 5736 5716 5709 5716 5721 5713 5713 5712 5702 5708 5705 5696 5691
5566 5586 5609 5612 5615 5612 5610 5600 5616 5605 5612 5612 5627 5658 5690 5708 5710 5705 5706 5703 5700 5708 5716 5723 5723 5726 5727 5721 5725 5737 5742 5735 5719 5712 5709 5708 5704 5705 5703 5703 5698 5695 5688 5679
5580 5581 5610 5616 5615 5618 5618 5619 5592 5581 5586 5599 5624 5637 5653 5682 5699 5696 5697 5701 5699 5708 5718 5722 5717 5724 5734 5728 5723 5722 5725 5720 5713 5703 5697 5695 5696 5695 5695 5693 5684 5675 5673 5672
5582 5576 5601 5613 5606 5606 5608 5597 5603 5592 5588 5587 5592 5621 5669 5682 5694 5691 5699 5710 5704 5706 5717 5723 5723 5719 5728 5731 5721 5714 5713 5716 5707 5700 5699 5697 5691 5689 5685 5680 5674 5667 5664 5661
5592 5584 5581 5598 5623 5628 5621 5609 5601 5577 5591 5592 5608 5620 5679 5685 5701 5703 5709 5717 5714 5706 5707 5723 5722 5714 5713 5711 5709 5705 5699 5696 5691 5691 5683 5676 5678 5678 5675 5666 5660 5655 5646 5643
5606 5588 5576 5596 5608 5615 5612 5616 5610 5604 5601 5600 5602 5630 5662 5676 5691 5703 5713 5716 5706 5698 5710 5716 5713 5712 5704 5699 5694 5688 5688 5686 5684 5678 5676 5668 5665 5658 5653 5648 5642 5636 5631 5629
5614 5594 5593 5578 5602 5611 5615 5620 5615 5611 5588 5599 5616 5626 5640 5654 5673 5682 5682 5694 5691 5689 5693 5697 5696 5695 5696 5688 5686 5684 5676 5673 5670 5666 5657 5648 5648 5645 5637 5635 5629 5626 5621 5616
5606 5591 5602 5605 5614 5622 5627 5628 5620 5614 5615 5615 5627 5621 5632 5646 5655 5667 5674 5677 5676 5673 5674 5677 5677 5676 5677 5680 5673 5667 5664 5661 5659 5653 5649 5641 5637 5632 5625 5619 5617 5613 5609 5606
5591 5593 5601 5606 5623 5626 5624 5633 5632 5624 5624 5628 5630 5619 5629 5629 5645 5652 5658 5667 5662 5660 5666 5665 5665 5664 5666 5659 5653 5652 5648 5646 5642 5639 5633 5625 5620 5614 5609 5605 5600 5600 5599 5595
5576 5584 5588 5591 5608 5623 5605 5629 5636 5636 5640 5639 5627 5618 5618 5614 5625 5634 5647 5650 5646 5644 5645 5649 5649 5646 5645 5642 5641 5639 5635 5632 5629 5623 5619 5613 5608 5603 5599 5594 5594 5592 5590 5590
5579 5576 5579 5586 5600 5594 5631 5650 5659 5653 5646 5643 5637 5621 5621 5609 5605 5612 5611 5628 5620 5618 5614 5616 5616 5621 5622 5619 5621 5622 5623 5622 5613 5602 5600 5599 5596 5592 5589 5588 5583 5581 5578 5574
5589 5576 5575 5580 5579 5608 5630 5629 5638 5644 5631 5650 5632 5620 5618 5613 5610 5603 5603 5610 5607 5612 5597 5598 5607 5608 5607 5607 5605 5606 5604 5605 5600 5588 5585 5582 5583 5579 5578 5580 5575 5570 5568 5568
5584 5580 5579 5580 5580 5587 5608 5625 5646 5647 5613 5629 5625 5624 5627 5629 5617 5598 5595 5608 5593 5599 5588 5591 5595 5592 5594 5586 5588 5589 5583 5583 5579 5574 5575 5573 5575 5573 5570 5566 5565 5562 5561 5559
5571 5573 5576 5573 5572 5591 5614 5628 5632 5610 5618 5627 5631 5623 5626 5634 5631 5609 5593 5596 5588 5581 5581 5586 5582 5580 5576 5572 5568 5564 5561 5560 5558 5558 5563 5558 5557 5556 5555 5554 5552 5549 5546 5542
5578 5570 5575 5575 5567 5583 5627 5632 5624 5637 5645 5638 5628 5632 5622 5621 5614 5604 5595 5582 5580 5578 5575 5572 5566 5560 5555 5553 5550 5545 5545 5545 5544 5547 5545 5545 5543 5545 5544 5541 5538 5536 5536 5531
5573 5577 5575 5581 5598 5610 5627 5640 5642 5642 5650 5639 5633 5622 5618 5610 5598 5595 5587 5575 5574 5573 5569 5564 5562 5555 5548 5541 5538 5536 5534 5536 5538 5535 5532 5534 5535 5536 5535 5533 5530 5528 5528 5522
5572 5574 5575 5582 5597 5604 5623 5623 5633 5639 5631 5633 5628 5618 5613 5603 5590 5583 5578 5571 5570 5564 5558 5555 5550 5540 5533 5533 5532 5531 5533 5530 5528 5523 5524 5526 5527 5526 5527 5525 5522 5519 5516 5510
5560 5574 5574 5582 5592 5606 5614 5613 5613 5622 5627 5620 5619 5613 5609 5604 5591 5588 5581 5572 5565 5556 5549 5544 5538 5532 5528 5527 5525 5524 5524 5524 5519 5519 5520 5519 5519 5519 5519 5517 5514 5511 5504 5500
5567 5565 5568 5574 5580 5582 5590 5601 5615 5626 5620 5616 5611 5603 5599 5597 5593 5588 5577 5567 5557 5547 5541 5535 5529 5525 5521 5520 5517 5514 5512 5511 5511 5512 5510 5509 5509 5509 5504 5501 5498 5497 5494 5489